Météo par heure à Aliabad

Ce jour, 31 Octobre, Samedi

Heure Température Précipitation Vent Pression Humidité
00:00 +18°C° 0 mm 0 m/s 740 mmHg 43%
01:00 +18°C° 0 mm 0 m/s 740 mmHg 44%
02:00 +17°C° 0 mm 0 m/s 740 mmHg 46%
03:00 +17°C° 0 mm 0 m/s 740 mmHg 47%
04:00 +17°C° 0 mm 0 m/s 740 mmHg 48%
05:00 +17°C° 0 mm 0 m/s 740 mmHg 50%
06:00 +16°C° 0 mm 0 m/s 740 mmHg 52%
07:00 +20°C° 0 mm 1 m/s 740 mmHg 48%
08:00 +22°C° 0 mm 1 m/s 740 mmHg 44%
09:00 +24°C° 0 mm 1 m/s 740 mmHg 39%
10:00 +25°C° 0 mm 1 m/s 740 mmHg 35%
11:00 +26°C° 0 mm 1 m/s 740 mmHg 32%
12:00 +28°C° 0 mm 1 m/s 739 mmHg 29%
13:00 +28°C° 0 mm 1 m/s 739 mmHg 28%
14:00 +28°C° 0 mm 1 m/s 739 mmHg 28%
15:00 +28°C° 0 mm 1 m/s 739 mmHg 28%
16:00 +27°C° 0 mm 1 m/s 739 mmHg 31%
17:00 +25°C° 0 mm 1 m/s 739 mmHg 34%
18:00 +23°C° 0 mm 1 m/s 739 mmHg 38%
19:00 +22°C° 0 mm 1 m/s 739 mmHg 38%
20:00 +22°C° 0 mm 1 m/s 739 mmHg 39%
21:00 +21°C° 0 mm 1 m/s 739 mmHg 39%
22:00 +21°C° 0 mm 1 m/s 739 mmHg 39%
23:00 +21°C° 0 mm 1 m/s 739 mmHg 39%

Demain, 1 Novembre, Dimanche

Heure Température Précipitation Vent Pression Humidité
00:00 +21°C° 0 mm 1 m/s 738 mmHg 40%
01:00 +21°C° 0 mm 1 m/s 738 mmHg 40%
02:00 +20°C° 0 mm 1 m/s 738 mmHg 40%
03:00 +19°C° 0 mm 2 m/s 738 mmHg 41%
04:00 +20°C° 0 mm 1 m/s 739 mmHg 40%
05:00 +20°C° 0 mm 1 m/s 739 mmHg 40%
06:00 +20°C° 0 mm 1 m/s 739 mmHg 40%
07:00 +22°C° 0 mm 1 m/s 739 mmHg 36%
08:00 +24°C° 0 mm 1 m/s 740 mmHg 32%
09:00 +26°C° 0 mm 1 m/s 740 mmHg 27%
10:00 +28°C° 0 mm 2 m/s 740 mmHg 24%
11:00 +29°C° 0 mm 2 m/s 740 mmHg 21%
12:00 +31°C° 0 mm 2 m/s 740 mmHg 18%
13:00 +31°C° 0 mm 2 m/s 739 mmHg 18%
14:00 +31°C° 0 mm 2 m/s 739 mmHg 17%
15:00 +32°C° 0 mm 2 m/s 739 mmHg 17%
16:00 +29°C° 0 mm 2 m/s 739 mmHg 20%
17:00 +27°C° 0 mm 1 m/s 740 mmHg 23%
18:00 +24°C° 0 mm 1 m/s 740 mmHg 27%
19:00 +23°C° 0 mm 2 m/s 740 mmHg 31%
20:00 +21°C° 0 mm 2 m/s 740 mmHg 35%
21:00 +21°C° 0 mm 2 m/s 741 mmHg 39%
22:00 +20°C° 0 mm 2 m/s 741 mmHg 43%
23:00 +20°C° 0 mm 1 m/s 741 mmHg 48%

Après-demain, 2 Novembre, Lundi

Heure Température Précipitation Vent Pression Humidité
00:00 +17°C° 0 mm 0 m/s 741 mmHg 53%
01:00 +19°C° 0 mm 1 m/s 741 mmHg 55%
02:00 +19°C° 0 mm 1 m/s 741 mmHg 56%
03:00 +18°C° 0 mm 1 m/s 741 mmHg 58%
04:00 +18°C° 0 mm 1 m/s 741 mmHg 56%
05:00 +18°C° 0 mm 1 m/s 741 mmHg 55%
06:00 +18°C° 0 mm 1 m/s 741 mmHg 54%
07:00 +20°C° 0 mm 1 m/s 742 mmHg 47%
08:00 +21°C° 0 mm 2 m/s 742 mmHg 41%
09:00 +24°C° 0 mm 2 m/s 742 mmHg 34%
10:00 +26°C° 0 mm 2 m/s 742 mmHg 30%
11:00 +28°C° 0 mm 2 m/s 742 mmHg 27%
12:00 +29°C° 0 mm 2 m/s 742 mmHg 23%
13:00 +29°C° 0 mm 2 m/s 742 mmHg 22%
14:00 +29°C° 0 mm 2 m/s 742 mmHg 22%
15:00 +30°C° 0 mm 2 m/s 742 mmHg 21%
16:00 +28°C° 0 mm 2 m/s 742 mmHg 25%
17:00 +26°C° 0 mm 2 m/s 743 mmHg 28%
18:00 +25°C° 0 mm 2 m/s 743 mmHg 31%
19:00 +24°C° 0.1 mm 2 m/s 743 mmHg 35%
20:00 +23°C° 0.1 mm 2 m/s 744 mmHg 38%
21:00 +21°C° 0.1 mm 3 m/s 744 mmHg 42%
22:00 +20°C° 0 mm 2 m/s 744 mmHg 51%
23:00 +19°C° 0 mm 2 m/s 743 mmHg 59%

3 Novembre, Mardi

Heure Température Précipitation Vent Pression Humidité
00:00 +18°C° 0 mm 2 m/s 743 mmHg 68%
01:00 +18°C° 0 mm 2 m/s 743 mmHg 71%
02:00 +18°C° 0 mm 1 m/s 743 mmHg 73%
03:00 +18°C° 0 mm 1 m/s 743 mmHg 76%
04:00 +16°C° 0 mm 1 m/s 743 mmHg 78%
05:00 +15°C° 0 mm 1 m/s 743 mmHg 80%
06:00 +15°C° 0 mm 1 m/s 743 mmHg 82%
07:00 +16°C° 0 mm 1 m/s 744 mmHg 75%
08:00 +19°C° 0 mm 1 m/s 744 mmHg 69%
09:00 +19°C° 0 mm 2 m/s 744 mmHg 63%
10:00 +20°C° 0 mm 2 m/s 744 mmHg 59%
11:00 +21°C° 0 mm 2 m/s 744 mmHg 56%
12:00 +23°C° 0 mm 2 m/s 743 mmHg 52%
13:00 +23°C° 0 mm 2 m/s 743 mmHg 51%
14:00 +23°C° 0 mm 2 m/s 743 mmHg 50%
15:00 +24°C° 0 mm 2 m/s 743 mmHg 49%
16:00 +22°C° 0 mm 1 m/s 743 mmHg 53%
17:00 +21°C° 0 mm 1 m/s 744 mmHg 58%
18:00 +20°C° 0 mm 1 m/s 744 mmHg 62%
19:00 +19°C° 0 mm 1 m/s 744 mmHg 64%
20:00 +18°C° 0 mm 1 m/s 744 mmHg 67%
21:00 +18°C° 0 mm 1 m/s 744 mmHg 69%
22:00 +18°C° 0 mm 1 m/s 744 mmHg 69%
23:00 +16°C° 0 mm 1 m/s 744 mmHg 70%

4 Novembre, Mercredi

Heure Température Précipitation Vent Pression Humidité
00:00 +16°C° 0 mm 1 m/s 744 mmHg 70%
01:00 +14°C° 0 mm 0 m/s 744 mmHg 71%
02:00 +14°C° 0 mm 0 m/s 744 mmHg 72%
03:00 +13°C° 0 mm 0 m/s 744 mmHg 74%
04:00 +13°C° 0 mm 0 m/s 744 mmHg 74%
05:00 +13°C° 0 mm 0 m/s 744 mmHg 75%
06:00 +13°C° 0 mm 0 m/s 744 mmHg 76%
07:00 +14°C° 0 mm 0 m/s 744 mmHg 70%
08:00 +16°C° 0 mm 0 m/s 744 mmHg 63%
09:00 +20°C° 0 mm 1 m/s 744 mmHg 57%
10:00 +21°C° 0 mm 1 m/s 743 mmHg 53%
11:00 +22°C° 0 mm 1 m/s 743 mmHg 50%
12:00 +24°C° 0 mm 1 m/s 743 mmHg 46%
13:00 +24°C° 0 mm 1 m/s 743 mmHg 45%
14:00 +24°C° 0 mm 1 m/s 742 mmHg 44%
15:00 +24°C° 0 mm 1 m/s 742 mmHg 43%
16:00 +23°C° 0 mm 1 m/s 742 mmHg 48%
17:00 +21°C° 0 mm 1 m/s 742 mmHg 53%
18:00 +17°C° 0 mm 0 m/s 742 mmHg 58%
19:00 +19°C° 0 mm 1 m/s 742 mmHg 59%
20:00 +19°C° 0 mm 1 m/s 743 mmHg 60%
21:00 +18°C° 0 mm 1 m/s 743 mmHg 61%
22:00 +18°C° 0 mm 1 m/s 743 mmHg 62%
23:00 +15°C° 0 mm 0 m/s 743 mmHg 63%

5 Novembre, Jeudi

Heure Température Précipitation Vent Pression Humidité
00:00 +15°C° 0 mm 0 m/s 743 mmHg 65%
01:00 +15°C° 0 mm 0 m/s 743 mmHg 65%
02:00 +15°C° 0 mm 0 m/s 743 mmHg 66%
03:00 +14°C° 0 mm 0 m/s 742 mmHg 67%
04:00 +14°C° 0 mm 0 m/s 742 mmHg 67%
05:00 +14°C° 0 mm 0 m/s 742 mmHg 67%
06:00 +14°C° 0 mm 0 m/s 742 mmHg 68%
07:00 +15°C° 0 mm 0 m/s 743 mmHg 63%
08:00 +17°C° 0 mm 0 m/s 743 mmHg 58%
09:00 +18°C° 0 mm 0 m/s 743 mmHg 53%
10:00 +21°C° 0 mm 1 m/s 743 mmHg 51%
11:00 +22°C° 0 mm 1 m/s 742 mmHg 49%
12:00 +23°C° 0 mm 1 m/s 742 mmHg 46%
13:00 +24°C° 0 mm 1 m/s 742 mmHg 46%
14:00 +24°C° 0 mm 1 m/s 742 mmHg 45%
15:00 +24°C° 0 mm 1 m/s 742 mmHg 44%
16:00 +22°C° 0 mm 1 m/s 742 mmHg 50%
17:00 +20°C° 0 mm 1 m/s 742 mmHg 56%
18:00 +19°C° 0 mm 1 m/s 742 mmHg 62%
19:00 +18°C° 0 mm 1 m/s 742 mmHg 63%
20:00 +18°C° 0 mm 1 m/s 742 mmHg 65%
21:00 +16°C° 0 mm 1 m/s 742 mmHg 67%
22:00 +16°C° 0 mm 1 m/s 742 mmHg 69%
23:00 +15°C° 0 mm 0 m/s 742 mmHg 70%
Voir plus

Nous avons besoin de votre consentement

Meteoprog et ses fournisseurs de services peuvent stocker et accéder à des données personnelles telles que des cookies, des identifiants d'appareils ou d'autres technologies similaires sur votre appareil et traiter ces données pour personnaliser le contenu et les publicités, ainsi que pour fournir des fonctionnalités de médias sociaux et analyser le trafic.

  • Stocker et/ou accéder à des informations sur votre appareil

    Des cookies, des identifiants d'appareils ou d'autres informations peuvent être stockés ou accessibles sur votre appareil aux fins indiquées ci-dessus.

  • Annonces et contenus personnalisés, mesure des annonces et des contenus, connaissance de l'audience et développement de produits

    Les annonces et le contenu peuvent être personnalisés en fonction d'un profil. D'autres données peuvent être ajoutées pour mieux personnaliser les annonces et le contenu. Les performances des publicités et du contenu peuvent être mesurées. Il est possible d'obtenir des informations sur le public qui a vu les publicités et le contenu. Ces données peuvent être utilisées pour développer ou améliorer l'expérience de l'utilisateur, les systèmes et les logiciels.

En cliquant sur "J'accepte", vous autorisez l'utilisation de cookies, des identifiants d'appareils, des balises web ou d'autres technologies similaires. Vos paramètres peuvent être modifiés dans le navigateur de votre appareil.

Dans certains cas, des intérêts légitimes peuvent être invoqués plutôt qu'un consentement. Vous pouvez en savoir plus à ce sujet dans notre Politique de confidentialité et de cookies.